Skip Page Navigation
NASA JPL Caltech
NASA Logo - Jet Propulsion Laboratory + View the NASA Portal
+ Center for Near-Earth Object Studies
JPL Home Earth Solar System Stars & Galaxies Technology
JPL Solar System Dynamics
BODIES ORBITS EPHEMERIDES TOOLS PHYSICAL DATA DISCOVERY FAQ SITE MAP
JPL Small-Body Database Browser
Search: [ help ]  
437841 (1998 HD14)
Classification: Aten [NEO, PHA]          SPK-ID: 2437841
Ephemeris | Orbit Diagram | Orbital Elements | Mission Design | Physical Parameters | Discovery Circumstances | Close-Approach Data ]

[ show orbit diagram ]
Orbital Elements at Epoch 2459000.5 (2020-May-31.0) TDB
Reference: JPL 53 (heliocentric ecliptic J2000)
 Element Value Uncertainty (1-sigma)   Units 
e .3125638855368801 5.8706e-08  
a .9630169299883989 7.4789e-09 au
q .6620126165134272 5.749e-08 au
i 7.810313592910713 3.7587e-06 deg
node 183.8128536124727 5.7523e-05 deg
peri 260.8647833309823 4.1634e-05 deg
M 226.1143748500236 4.2213e-05 deg
tp 2459128.875089714976
(2020-Oct-06.37508971)
4.0914e-05 TDB
period 345.1829294266805
0.95
4.0211e-06
1.101e-08
d
yr
n 1.042925270371653 1.2149e-08 deg/d
Q 1.264021243463371 9.8165e-09 au

Additional Model Parameters
 Parameter Value Uncertainty (1-sigma) 
A2 [EST] -4.9028292966006E-14 1.044E-14
ALN [SET] 1. n/a
NK [SET] 0. n/a
NM [SET] 2. n/a
R0 [SET] 1. n/a
  Orbit Determination Parameters
   # obs. used (total)      207  
   data-arc span      7735 days (21.18 yr)  
   first obs. used      1998-04-25  
   last obs. used      2019-06-29  
   planetary ephem.      DE431  
   SB-pert. ephem.      SB431-N16  
   condition code      0  
   norm. resid. RMS      .45977  
   source      ORB  
   producer      Otto Matic  
   solution date      2019-Jul-01 06:03:27  

Additional Information
 Earth MOID = .0342703 au 
 Jupiter MOID = 3.94854 au 
 T_jup = 6.213 
 Nongravitational accels. using nonstandard g(r) = (1 au/ r)^2 
[ show covariance matrix ]

Ephemeris | Orbit Diagram | Orbital Elements | Mission Design | Physical Parameters | Discovery Circumstances | Close-Approach Data ]

Physical Parameter Table
Parameter Symbol Value Units Sigma Reference Notes
absolute magnitude H 21.0   n/a MPO413509  

437841 (1998 HD14)          Discovered 1998-Apr-25 by NEAT at Haleakala
Reference: Last Updated: 2015-07-06

[ show close-approach data ]
Ephemeris | Orbit Diagram | Orbital Elements | Mission Design | Physical Parameters | Discovery Circumstances | Close-Approach Data ]
ABOUT SSD CREDITS/AWARDS PRIVACY/COPYRIGHT GLOSSARY LINKS
FirstGov 2020-Jul-16 17:15 UT
(server date/time)  
NASA Home Page
Site Manager:   Ryan S. Park
Webmaster  Alan B. Chamberlin